Weather Roundup
Issued by NWS Chicago, IL

Home | Current Version | Previous Version | Text Only | Print | Product List | Glossary On
Versions: 1 2 3 4 5 6 7 8 9 10 11 12 13 14 15 16 17 18 19 20 21 22 23 24 25 26 27 28 29 30 31 32 33 34 35 36 37 38 39 40 41 42 43 44 45 46 47 48 49 50
000
NZUS59 KLOT 182010
HRRLOT

CHICAGO AREA WEATHER ROUNDUP
NATIONAL WEATHER SERVICE CHICAGO/ROMEOVILLE IL
200 PM CST THU DEC 18 2014

NOTE: "FAIR" INDICATES FEW OR NO CLOUDS BELOW 12,000 FEET WITH NO
SIGNIFICANT WEATHER AND/OR OBSTRUCTIONS TO VISIBILITY.

* THESE STATIONS ARE NOT UNDER NWS QUALITY CONTROL. THEY ALSO MAY NOT
  REPORT WEATHER SUCH AS PRECIPITATION OR FOG.

ILZ005-006-012>014-019>023-182100-
NORTHEAST ILLINOIS

CITY           SKY/WX    TMP DP  RH WIND       PRES   REMARKS
OHARE          CLOUDY    28  18  66 NW3       30.21F
MIDWAY         CLOUDY    29  18  63 SW8       30.23F WCI  21
AURORA         PTSUNNY   27  17  66 W3        30.23F
LANSING*       CLOUDY    27  19  72 W5        30.24S WCI  21
JOLIET*        CLOUDY    26  18  69 W5        30.24F WCI  21
WAUKEGAN       CLOUDY    28  19  69 VRB6      30.21F WCI  22
DUPAGE AIRPORT CLOUDY    28  17  63 CALM      30.21F
WHEELING       CLOUDY    27  18  69 NW5       30.24F WCI  22
KANKAKEE*      CLOUDY    28  21  77 W5        30.24F WCI  22
MORRIS*        CLOUDY    27  20  76 W6        30.24S WCI  20
LEWIS AIRPORT* CLOUDY    26  17  71 N3        30.24S
NORTHERLY IS     N/A     28  17  63 SW3         N/A
$$

WIZ051-052-058>065-066-070>072-182100-
SOUTHEAST WISCONSIN

CITY           SKY/WX    TMP DP  RH WIND       PRES   REMARKS
MILWAUKEE      CLOUDY    29  22  75 NW8       30.21F WCI  21
KENOSHA*       CLOUDY    28  20  71 W8        30.21F WCI  20
RACINE*        CLOUDY    29  20  69 NW9       30.23F WCI  20
BURLINGTON     CLOUDY    26  21  82 NW8       30.22S WCI  18
WAUKESHA       CLOUDY    25  25 100 W6        30.22F WCI  18
WEST BEND      CLOUDY    28  23  80 NW5       30.21S WCI  23
$$

INZ001>003-010>013-019-020-182100-
NORTHWEST INDIANA

CITY           SKY/WX    TMP DP  RH WIND       PRES   REMARKS
GARY*          NOT AVBL
MICHIGAN CITY* NOT AVBL
RENSSELAER*    NOT AVBL
VALPARAISO     CLOUDY    27  18  69 SW6       30.22F WCI  20
$$

LMZ740>746-182100-
SOUTHERN LAKE MICHIGAN

STATION/POSITION TIME  SKY/WX   TEMP WIND        PRES    VSBY
                                AIR  DIR/SP/G
                 (UTC)          (F)  (DEG/KT/KT) (MB)    (MI)
HARRISON CRIB    2000            27  310/  5/  6   N/A
BURNHAM HARBOR   2000            28  230/  4/  7   N/A
CALUMET HARBOR   2000            26  190/  5/  7 1022.4F
BURNS HARBOR     NOT AVBL
MICHIGAN CITY    NOT AVBL
$$

ABBREVIATIONS USED IN REMARKS
   TC - TEMPERATURE IN CELSIUS
  WCI - WIND CHILL INDEX
   HX - HEAT INDEX
  VSB - VISIBILITY
$$


USA.gov is the U.S. government's official web portal to all federal, state and local government web resources and services.